Weather observations for the past three days for
Ludington, Mason County Airport
Imperial (Metric)
Date Time (edt) Wind (mph) Vis. (mi.) Weather Sky Cond. Temperature (ºF) Relative Humidity Wind Chill (°F) Heat Index (°F) Pressure Precipitation (in)
Air Dwpt 6 hour altimeter (in) sea level (mb) 1 hr 3 hr 6 hr
Max. Min.
20 21:35 SW 6 10.00 Fair CLR 69.3 62.1 78% 30.08 0.0
20 21:15 SW 6 10.00 Fair CLR 69.6 62.2 78% 30.08 0.0
20 20:55 SW 6 10.00 Fair CLR 70.3 62.1 75% 30.07 0.0
20 20:35 SW 5 10.00 Fair CLR 71.4 61.5 71% 30.07 0.0
20 20:15 SW 7 10.00 Fair CLR 72 61.2 69% 30.07 0.0
20 19:55 SW 9 10.00 Fair CLR 72.7 60.3 77.2 72.7 65% 30.07 0.0
20 19:35 SW 9 10.00 Fair CLR 73.4 61.5 66% 30.07 0.0
20 19:15 SW 9 10.00 Fair CLR 74.3 59.4 60% 30.08 0.0
20 18:55 SW 8 10.00 Fair CLR 74.7 60.3 61% 30.07 0.0
20 18:35 W 8 10.00 Fair CLR 75.2 60.1 59% 77 30.08 0.0
20 18:15 W 7 10.00 Fair CLR 76.1 59.2 56% 78 30.08 0.0
20 17:55 SW 9 10.00 Fair CLR 76.6 58.1 53% 78 30.08 0.0
20 17:35 W 7 10.00 Fair CLR 76.5 59.5 56% 78 30.08 0.0
20 17:15 W 8 10.00 Fair CLR 76.6 59.4 55% 78 30.08 0.0
20 16:55 W 8 10.00 Fair CLR 76.3 59 55% 78 30.08 0.0
20 16:35 SW 8 10.00 Fair CLR 77 59 54% 79 30.08 0.0
20 16:15 SW 7 10.00 Fair CLR 76.6 60.3 57% 78 30.09 0.0
20 15:55 W 8 10.00 Fair CLR 76.5 61.3 60% 78 30.09 0.0
20 15:35 W 8 10.00 Fair CLR 76.8 62.1 60% 79 30.09 0.0
20 15:15 W 7 10.00 Fair CLR 76.6 62.2 61% 78 30.1 0.0
20 14:55 SW 10 10.00 Fair CLR 76.6 61.2 59% 78 30.1 0.0
20 14:35 SW 7 10.00 Fair CLR 76.3 61.9 61% 78 30.1 0.0
20 14:15 W 8 10.00 Fair CLR 76.5 62.6 62% 78 30.1 0.0
20 13:55 SW 8 10.00 Fair CLR 76.1 63.7 77.5 68.9 66% 78 30.11 0.0
20 13:35 SW 8 10.00 Fair CLR 77.5 64.8 65% 79 30.11 0.0
20 13:15 SW 7 10.00 Fair CLR 75.6 64 68% 77 30.11 0.0
20 12:55 SW 7 10.00 Fair CLR 75.4 64.8 70% 77 30.11 0.0
20 12:35 W 6 10.00 Partly Cloudy SCT070 75.6 62.1 63% 78 30.11 0.0
20 12:15 W 5 10.00 Partly Cloudy SCT060 SCT070 74.5 62.4 66% 30.11 0.0
20 11:55 W 6 10.00 Partly Cloudy SCT070 75.6 63.9 67% 77 30.11 0.0
20 11:35 W 6 10.00 Partly Cloudy SCT070 75.4 63.5 67% 77 30.11 0.0
20 11:15 W 6 10.00 Partly Cloudy SCT070 73.8 62.8 69% 30.11 0.0
20 10:55 W 5 10.00 Mostly Cloudy BKN060 73.4 61.5 66% 30.11 0.0
20 10:35 W 3 10.00 Partly Cloudy SCT070 73.6 63 70% 30.11 0.0
20 10:15 W 5 10.00 Partly Cloudy SCT060 72.9 63.3 72% 30.11 0.0
20 09:55 W 8 10.00 Mostly Cloudy BKN060 72.7 63.1 72% 30.11 0.0
20 09:35 W 6 10.00 Partly Cloudy SCT060 71.4 63.3 76% 30.11 0.0
20 09:15 W 6 10.00 Fair CLR 71.6 64 77% 30.11 0.0
20 08:55 W 7 10.00 Fair CLR 70.5 63.9 80% 30.11 0.0
20 08:35 W 6 10.00 Fair CLR 70.5 63.9 80% 30.11 0.0
20 08:15 W 6 10.00 Fair CLR 69.8 63.9 82% 30.1 0.0
20 07:55 SW 5 10.00 Fair CLR 68.7 63.7 68.7 59.2 84% 30.1 0.0
20 07:35 Calm 10.00 Fair CLR 63.3 61.2 93% 30.1 0.0
20 07:15 Calm 10.00 Fair CLR 59.9 58.6 96% 30.1 0.0
20 06:55 Calm 7.00 Fair CLR 59.9 58.5 95% 30.09 0.0
20 06:35 Calm 5.00 Fog/Mist CLR 59.5 57.9 94% 30.09 0.0
20 06:15 Calm 7.00 Fair CLR 59.7 58.1 94% 30.09 0.0
20 05:55 Calm 10.00 Fair CLR 62.4 59.4 90% 30.08 0.0
20 05:35 SW 3 10.00 Fair CLR 66.2 62.6 88% 30.08 0.0
20 05:15 SW 3 10.00 Fair CLR 66.2 62.6 88% 30.08 0.0
20 04:55 SW 5 10.00 Fair CLR 66 62.2 88% 30.08 0.0
20 04:35 SW 5 10.00 Fair CLR 66 62.1 87% 30.09 0.0
20 04:15 SW 6 10.00 Fair CLR 66.4 62.1 86% 30.09 0.0
20 03:55 SW 5 10.00 Fair CLR 66.2 61.7 86% 30.09 0.0
20 03:35 SW 5 10.00 Fair CLR 66.6 61.5 84% 30.09 0.0
20 03:15 SW 5 10.00 Fair CLR 66.6 61.2 83% 30.09 0.0
20 02:55 SW 5 10.00 Fair CLR 66.2 61 83% 30.1 0.0
20 02:35 SW 5 10.00 Fair CLR 66.2 61 83% 30.1 0.0
20 02:15 SW 5 10.00 Fair CLR 66.2 61.3 84% 30.1 0.0
20 01:55 SW 5 10.00 Fair CLR 65.7 61.2 71.8 65.3 85% 30.11 0.0
20 01:35 SW 5 10.00 Fair CLR 65.7 61 85% 30.11 0.0
20 01:15 SW 5 10.00 Fair CLR 66.2 61.2 84% 30.12 0.0
20 00:55 SW 6 10.00 Fair CLR 65.8 61 84% 30.12 0.0
20 00:35 SW 5 10.00 Fair CLR 66 61.2 84% 30.12 0.0
20 00:15 SW 5 10.00 Fair CLR 66.2 61.7 86% 30.12 0.0
19 23:55 SW 5 10.00 Fair CLR 66.2 61.7 86% 30.12 0.0
19 23:35 SW 7 10.00 Fair CLR 67.1 61.7 83% 30.12 0.0
19 23:15 SW 5 10.00 Fair CLR 66.6 61.2 83% 30.12 0.0
19 22:55 SW 7 10.00 Fair CLR 67.1 61.3 82% 30.12 0.0
19 22:35 SW 6 10.00 Fair CLR 66.9 61.2 82% 30.12 0.0
19 22:15 SW 5 10.00 Fair CLR 67.3 61.7 82% 30.11 0.0
19 21:55 SW 7 10.00 Fair CLR 67.3 62.1 83% 30.11 0.0
19 21:35 SW 7 10.00 Fair CLR 67.5 61.9 82% 30.11 0.0
19 21:15 SW 7 10.00 Fair CLR 67.6 61.7 81% 30.1 0.0
19 20:55 SW 8 10.00 Fair CLR 68.9 60.3 74% 30.1 0.0
19 20:35 SW 7 10.00 Fair CLR 70 56.3 62% 30.1 0.0
19 20:15 SW 8 10.00 Fair CLR 71.1 53.2 53% 30.1 0.0
19 19:55 SW 9 10.00 Fair CLR 72 51.4 76.1 72 49% 30.1 0.0
19 19:35 SW 9 10.00 Fair CLR 72.7 52 48% 30.11 0.0
19 19:15 SW 7 10.00 Fair CLR 72.5 55.6 55% 30.11 0.0
19 18:55 SW 7 10.00 Fair CLR 72.7 56.5 57% 30.12 0.0
19 18:35 SW 9 10.00 Fair CLR 73 55.9 55% 30.13 0.0
19 18:15 W 8 10.00 Fair CLR 73.6 59 60% 30.13 0.0
19 17:55 SW 7 10.00 Fair CLR 73.6 58.1 59% 30.13 0.0
19 17:35 W 8 10.00 Fair CLR 74.8 55 50% 30.14 0.0
19 17:15 SW 8 10.00 Fair CLR 75.4 52.5 45% 78 30.14 0.0
19 16:55 SW 7 10.00 Fair CLR 75.2 54 48% 78 30.14 0.0
19 16:35 W 8 10.00 Fair CLR 75.4 54.7 49% 78 30.14 0.0
19 16:15 SW 8 10.00 Fair CLR 75.6 52.7 45% 78 30.15 0.0
19 15:55 W 6 10.00 Fair CLR 75.6 54.1 47% 78 30.14 0.0
19 15:35 SW 8 10.00 Fair CLR 75.4 55.4 50% 78 30.15 0.0
19 15:15 W 7 10.00 Fair CLR 74.8 56.8 54% 30.15 0.0
19 14:55 W 7 10.00 Fair CLR 74.5 55.9 53% 30.15 0.0
19 14:35 W 7 10.00 Fair CLR 74.3 56.3 54% 30.16 0.0
19 14:15 W 8 10.00 Fair CLR 74.7 56.3 53% 30.16 0.0
19 13:55 W 7 10.00 Fair CLR 73.8 57.4 73.9 56.8 57% 30.17 0.0
19 13:35 W 8 10.00 Fair CLR 73.8 58.8 60% 30.17 0.0
19 13:15 SW 6 10.00 Fair CLR 73.4 60.3 64% 30.17 0.0
19 12:55 W 9 10.00 Fair CLR 73.2 60.3 64% 30.18 0.0
19 12:35 SW 9 10.00 Fair CLR 72.5 59.4 63% 30.18 0.0
19 12:15 SW 8 10.00 Fair CLR 72.1 60.3 66% 30.18 0.0
19 11:55 SW 7 10.00 Fair CLR 72 62.4 72% 30.18 0.0
19 11:35 W 9 10.00 Fair CLR 71.4 61.2 70% 30.18 0.0
19 11:15 W 9 10.00 Fair CLR 71.4 61.2 70% 30.18 0.0
19 10:55 SW 8 10.00 Fair CLR 71.6 61.5 71% 30.19 0.0
19 10:35 SW 10 10.00 Fair CLR 70.7 61.2 72% 30.19 0.0
19 10:15 SW 8 10.00 Fair CLR 70.7 61 71% 30.19 0.0
19 09:55 SW 9 10.00 Fair CLR 70.2 61 73% 30.19 0.0
19 09:35 SW 9 10.00 Fair CLR 69.1 60.8 75% 30.19 0.0
19 09:15 SW 9 10.00 Fair CLR 68 60.1 76% 30.19 0.0
19 08:55 SW 6 10.00 Fair CLR 66.9 60.1 79% 30.19 0.0
19 08:35 Calm 10.00 Fair CLR 62.8 57.7 84% 30.2 0.0
19 08:15 Calm 10.00 Fair CLR 58.8 55.8 90% 30.19 0.0
19 07:55 Calm 10.00 Fair CLR 56.1 53.6 56.1 48.4 91% 30.19 0.0
19 07:35 Calm 10.00 Fair CLR 53.1 51.8 96% 30.19 0.0
19 07:15 Calm 10.00 Fair CLR 51.4 50 95% 30.18 0.0
19 06:55 Calm 10.00 Fair CLR 50.9 49.3 94% 30.18 0.0
19 06:35 Calm 10.00 Fair CLR 50.9 49.3 94% 30.18 0.0
19 06:15 Calm 10.00 Fair CLR 50 48.6 95% 30.18 0.0
19 05:55 Calm 10.00 Fair CLR 48.7 47.5 95% 30.17 0.0
19 05:35 Calm 10.00 Fair CLR 49.3 48.2 96% 30.17 0.0
19 05:15 Calm 4.00 Fog/Mist CLR 50 48.7 95% 30.17 0.0
19 04:55 Calm 10.00 Fair CLR 51.1 49.5 94% 30.17 0.0
19 04:35 Calm 10.00 Fair CLR 50.7 49.3 95% 30.17 0.0
19 04:15 Calm 10.00 Fair CLR 49.5 48.2 95% 30.17 0.0
19 03:55 Calm 10.00 Fair CLR 48.6 47.3 95% 30.16 0.0
19 03:35 Calm 10.00 Fair CLR 50.2 49.1 96% 30.16 0.0
19 03:15 Calm 10.00 Fair CLR 49.1 47.8 95% 30.16 0.0
19 02:55 Calm 10.00 Fair CLR 49.6 48.4 95% 30.17 0.0
19 02:35 Calm 10.00 Fair CLR 51.1 50 96% 30.17 0.0
19 02:15 Calm 10.00 Fair CLR 49.5 48 95% 30.17 0.0
19 01:55 Calm 2.50 Fog/Mist CLR 51.4 50 67.1 50 95% 30.17 0.0
19 01:35 Calm 2.00 Fog/Mist CLR 50.7 49.5 95% 30.17 0.0
19 01:15 Calm 10.00 Fair CLR 50.5 48.7 94% 30.17 0.0
19 00:55 Calm 10.00 Fair CLR 52.9 50.9 93% 30.17 0.0
19 00:35 Calm 10.00 Fair CLR 52 50.5 95% 30.17 0.0
19 00:15 Calm 10.00 Fair CLR 52.2 50.2 93% 30.17 0.0
18 23:55 Calm 10.00 Fair CLR 52.9 50.9 93% 30.17 0.0
18 23:35 Calm 10.00 Fair CLR 53.1 50.5 91% 30.17 0.0
18 23:15 Calm 10.00 Fair CLR 53.6 50.9 91% 30.17 0.0
18 22:55 Calm 10.00 Fair CLR 54.5 50.9 88% 30.17 0.0
18 22:35 Calm 10.00 Fair CLR 56.7 51.1 82% 30.17 0.0
18 22:15 Calm 5.00 Fog/Mist CLR 56.1 52.2 87% 30.17 0.0
18 21:55 Calm 7.00 Fair CLR 59 51.8 77% 30.16 0.0
18 21:35 Calm 10.00 Fair CLR 60.3 52.2 75% 30.16 0.0
18 21:15 Calm 10.00 Fair CLR 61.2 51.8 71% 30.16 0.0
18 20:55 Calm 10.00 Fair CLR 62.6 50.9 66% 30.16 0.0
18 20:35 NW 3 10.00 Fair CLR 64.8 49.6 58% 30.17 0.0
18 20:15 NW 3 10.00 Fair CLR 66.2 48.7 54% 30.17 0.0
18 19:55 N 5 10.00 Fair CLR 67.1 49.3 70.7 67.1 53% 30.17 0.0
18 19:35 N 5 10.00 Fair CLR 67.6 50 53% 30.17 0.0
18 19:15 N 6 10.00 Fair CLR 68.2 50.9 54% 30.17 0.0
18 18:55 NW 7 10.00 Fair CLR 68.4 49.6 51% 30.17 0.0
18 18:35 N 6 10.00 Fair CLR 69.1 49.5 50% 30.17 0.0
18 18:15 N 9 10.00 Fair CLR 69.6 48.9 48% 30.17 0.0
18 17:55 NW 5 10.00 Fair CLR 69.3 49.3 49% 30.18 0.0
18 17:35 NW 10 10.00 Fair CLR 69.4 49.5 49% 30.18 0.0
18 17:15 NW 10 10.00 Fair CLR 69.4 49.6 50% 30.18 0.0
18 16:55 N 12 G 18 10.00 Fair CLR 69.6 50.5 51% 30.18 0.0
18 16:35 N 8 G 18 10.00 Fair CLR 69.4 49.8 50% 30.18 0.0
18 16:15 NW 8 G 17 10.00 Fair CLR 69.8 50.9 51% 30.18 0.0
18 15:55 NW 10 G 17 10.00 Fair CLR 70 50.5 50% 30.18 0.0
18 15:35 N 9 10.00 Fair CLR 69.8 52.2 54% 30.18 0.0
18 15:15 NW 9 10.00 Fair CLR 70.5 51.1 50% 30.18 0.0
18 14:55 NW 8 G 16 10.00 Partly Cloudy SCT043 70.2 51.3 51% 30.18 0.0
18 14:35 N 9 10.00 Partly Cloudy SCT043 70.2 49.3 48% 30.19 0.0
18 14:15 N 7 10.00 Partly Cloudy SCT043 70 49.8 49% 30.19 0.0
18 13:55 N 9 10.00 Fair CLR 70.7 51.1 70.7 59 50% 30.19 0.0
18 13:35 NW 10 10.00 Partly Cloudy SCT043 70.2 49.6 48% 30.18 0.0
18 13:15 N 13 G 17 10.00 Partly Cloudy SCT043 69.6 49.8 50% 30.19 0.0
18 12:55 N 12 G 16 10.00 Partly Cloudy SCT041 SCT048 69.3 49.6 50% 30.18 0.0
18 12:35 N 9 10.00 Mostly Cloudy SCT041 BKN048 69.6 51.1 52% 30.18 0.0
18 12:15 N 7 10.00 Partly Cloudy SCT041 68.2 50.7 54% 30.19 0.0
18 11:55 NE 7 10.00 Mostly Cloudy BKN041 69.1 50.9 53% 30.18 0.0
18 11:35 N 5 10.00 Mostly Cloudy BKN041 68.9 50.7 52% 30.19 0.0
18 11:15 N 12 10.00 Fair CLR 67.1 50.2 55% 30.19 0.0
18 10:55 N 9 10.00 Fair CLR 67.1 49.8 54% 30.18 0.0
18 10:35 N 13 G 23 10.00 Partly Cloudy SCT034 66.9 50 55% 30.18 0.0
18 10:15 N 10 10.00 Partly Cloudy SCT034 SCT041 67.3 51.3 57% 30.18 0.0
18 09:55 N 9 10.00 Partly Cloudy SCT034 SCT041 66 51.1 59% 30.18 0.0
18 09:35 N 8 10.00 Partly Cloudy SCT034 65.8 50.9 59% 30.18 0.0
18 09:15 N 8 10.00 Fair CLR 64.6 50.4 60% 30.18 0.0
18 08:55 N 6 10.00 Fair CLR 64 52 65% 30.17 0.0
18 08:35 N 6 10.00 Fair CLR 62.6 52.5 70% 30.17 0.0
18 08:15 N 3 10.00 Fair CLR 60.8 52.7 75% 30.17 0.0
18 07:55 Calm 10.00 Fair CLR 58.3 52.7 58.3 49.5 82% 30.17 0.0
18 07:35 Calm 10.00 Fair CLR 55.4 51.4 87% 30.16 0.0
18 07:15 Calm 10.00 Fair CLR 51.8 50.5 96% 30.16 0.0
18 06:55 Calm 7.00 Fair CLR 51.1 50 96% 30.16 0.0
18 06:35 Calm 2.00 Fog/Mist CLR 50.5 49.3 95% 30.15 0.0
18 06:15 Calm 10.00 Fair CLR 52.3 51.1 96% 30.15 0.0
18 05:55 Calm 10.00 Fair CLR 51.6 50.4 95% 30.14 0.0
18 05:35 Calm 10.00 Fair CLR 52 50.7 96% 30.14 0.0
17 23:15 N 6 10.00 Mostly Cloudy SCT034 SCT042 BKN048 61.7 50.2 66% 30.09 0.0
17 22:55 N 7 10.00 Partly Cloudy SCT048 SCT055 61.9 50.9 67% 30.09 0.0
17 22:35 N 7 10.00 Partly Cloudy SCT036 SCT047 SCT060 62.1 50.4 66% 30.09 0.0
17 22:15 N 12 G 21 10.00 Mostly Cloudy SCT029 SCT034 BKN060 63 51.4 66% 30.08 0.0
Date Time (edt) Wind (mph) Vis. (mi.) Weather Sky Cond. Air Dwpt Max. Min. Relative Humidity Wind Chill (°F) Heat Index (°F) altimeter (in) sea level (mb) 1 hr 3 hr 6 hr
6 hour
Temperature (ºF) Pressure Precipitation (in)